Temperature
18 19 20 20 17 14 16 17 18 18 18 19 19 19 17 17 17 18 21 20 20 19 18 17 16 15 14 14 13 12 12 12 11 10 10 10 10 9 9 9 9 9 9 9 9 9 9 9 9
18 19 19 19 15 15 16 17 17 17 19 19 19 19 19 19 20 20 21 20 20 19 18 17 16 15 14 13 13 12 12 12 11 10 10 10 9 9 9 9 9 9 9 9 9 9 9 9 10
18 19 19 15 15 15 17 18 17 18 19 19 19 19 19 20 20 21 20 20 20 19 18 17 16 15 14 13 13 12 12 12 11 10 10 10 9 9 9 9 9 9 9 9 9 9 9 9 10
19 19 18 14 17 16 17 18 18 18 19 19 19 19 19 20 20 21 20 20 20 19 18 17 16 15 14 13 12 12 12 11 11 10 10 10 9 9 9 9 9 9 9 9 9 9 9 9 9
19 19 15 15 16 17 16 17 18 17 18 18 18 18 19 21 21 20 20 20 20 19 18 17 16 14 13 12 12 12 12 11 11 10 10 10 9 9 9 10 10 9 9 9 9 9 9 9 9
19 16 14 15 16 16 16 18 17 17 17 18 18 17 20 21 21 20 20 19 19 19 18 17 15 14 13 12 12 11 11 11 11 10 10 10 9 9 9 10 10 9 9 9 9 9 9 9 9
18 14 15 16 16 16 18 18 18 17 17 19 19 18 20 21 21 20 20 19 18 18 17 17 16 13 12 12 11 11 11 11 10 10 10 10 9 9 9 9 9 9 9 9 9 9 9 9 9
19 14 16 15 16 16 18 19 19 19 19 20 19 18 20 20 20 20 19 19 18 18 17 16 15 14 12 11 11 11 10 10 10 10 10 10 9 9 9 9 9 9 9 9 9 9 9 9 9
19 14 15 16 16 17 18 19 19 19 19 19 20 20 20 20 19 19 19 19 18 18 17 16 15 15 13 12 11 10 10 10 10 10 10 10 10 10 9 9 9 9 9 9 9 9 9 9 9
18 14 15 16 16 17 18 18 19 19 18 18 19 19 19 19 19 19 19 19 19 19 18 17 16 15 14 12 11 10 10 10 9 10 10 10 10 10 10 10 9 9 9 9 9 9 9 9 9
17 15 15 16 18 18 17 18 18 17 15 18 19 19 19 18 18 18 18 19 19 18 18 17 16 15 14 13 12 11 10 10 10 10 10 10 10 10 10 10 10 9 9 9 9 9 9 9 8
16 15 16 17 18 17 17 17 17 17 18 19 18 18 18 18 18 19 18 18 18 18 18 17 16 15 14 13 12 12 11 11 11 10 10 10 10 10 10 10 10 9 9 9 9 9 8 8 8
16 16 17 17 17 17 16 16 16 17 19 18 18 19 19 18 19 18 18 17 17 17 17 17 16 15 14 13 13 12 12 11 11 10 10 10 10 10 10 10 9 9 9 9 9 8 8 8 8
16 16 16 17 16 15 15 15 15 18 18 18 18 18 18 18 18 18 18 18 18 18 17 17 16 15 14 14 13 13 12 11 11 10 10 10 10 10 10 9 9 9 9 9 8 8 8 8 8
16 14 14 16 16 16 15 15 14 17 18 18 17 17 17 18 18 18 18 18 18 17 17 16 16 15 14 14 13 12 12 11 11 10 10 10 9 9 9 9 9 9 8 8 8 8 8 8 8
15 14 15 15 15 15 16 15 15 17 17 16 16 17 17 17 17 18 18 18 18 18 17 16 16 15 15 14 13 12 12 11 11 10 10 10 9 9 9 9 9 8 8 8 7 7 7 7 7
14 14 15 14 15 15 15 14 14 16 16 15 15 16 16 17 17 18 18 18 18 18 17 16 16 15 15 14 13 12 12 11 11 10 10 10 9 9 9 8 8 8 8 7 7 7 7 7 7
15 15 14 14 14 14 14 13 12 14 14 14 15 15 16 16 16 17 17 18 18 17 17 16 15 15 14 13 13 12 11 11 11 10 10 10 9 9 9 8 8 8 7 7 7 7 7 7 6
15 14 13 13 13 13 13 12 12 13 13 14 14 15 15 15 16 17 17 17 17 17 16 16 15 14 14 13 13 12 12 11 11 11 10 10 9 9 9 8 8 8 7 7 7 6 6 6 6
13 13 13 12 13 13 12 12 12 12 13 13 13 14 15 16 16 16 16 16 16 16 16 15 15 14 13 13 12 11 11 11 11 10 10 10 9 9 9 8 8 8 7 7 6 6 6 6 5
13 13 13 14 13 12 12 13 13 13 13 13 13 14 14 15 15 15 15 15 15 15 15 14 14 13 13 12 11 11 11 11 10 10 10 10 9 9 8 8 8 7 7 7 6 6 6 5 5
13 13 13 13 12 11 12 12 13 13 13 13 13 14 14 14 15 15 14 14 14 14 13 13 13 13 12 12 11 11 11 10 10 10 9 9 9 8 8 8 7 7 7 6 6 6 5 5 4
13 14 13 13 12 11 11 11 11 12 13 12 12 13 14 14 14 14 13 13 13 13 13 12 12 12 12 11 11 11 10 10 10 9 9 9 9 8 8 8 7 7 6 6 6 5 5 5 4
13 12 11 9 9 12 12 11 12 11 12 12 12 13 13 13 13 13 13 12 12 12 12 12 12 11 11 11 10 10 10 10 9 9 9 9 8 8 8 7 7 7 6 6 6 5 5 4 4
13 13 12 13 12 12 12 10 11 12 11 11 12 13 14 13 13 13 12 12 12 12 11 11 11 11 10 10 10 9 9 9 9 8 8 8 8 8 8 7 7 6 6 6 5 5 5 4 4
13 13 13 13 12 11 11 10 11 11 10 11 13 14 13 13 12 12 12 11 11 11 11 10 10 10 10 9 9 9 8 8 8 8 7 7 7 7 7 7 6 6 6 6 5 5 4 4 4
12 11 11 10 11 10 10 10 10 11 10 10 12 12 13 12 12 12 11 11 11 10 10 10 9 9 9 8 8 8 8 7 7 7 7 7 7 6 6 6 6 6 6 5 5 4 4 4 3
12 10 9 10 12 11 11 10 11 12 11 10 10 12 12 12 11 11 11 10 10 10 9 9 9 8 8 8 7 7 7 7 7 6 6 6 6 6 6 6 5 5 5 5 4 4 4 3 3
11 11 10 9 9 10 10 11 11 11 10 10 10 11 12 11 11 10 10 10 9 9 9 8 8 7 7 7 6 6 6 6 6 6 6 6 6 5 5 5 5 5 4 4 4 3 3 3 3
11 11 9 11 10 8 8 10 11 9 10 10 11 11 11 11 10 10 10 9 9 8 8 7 7 7 6 6 6 6 6 5 5 5 5 5 5 5 4 4 4 4 4 3 3 3 3 2 2
Wind_Speed
5 3 3 4 6 5 2 5 3 3 4 3 2 5 7 7 7 6 2 9 7 12 24 25 25 23 21 19 17 16 14 13 12 11 10 10 9 9 9 8 8 9 9 10 10 10 11 11 12
2 1 5 5 5 1 5 5 5 6 3 1 1 2 2 6 5 4 2 9 10 17 24 23 25 23 21 19 18 16 15 14 13 11 11 10 9 9 8 8 8 8 8 9 9 9 9 10 10
1 3 5 5 4 5 5 4 6 4 1 1 1 2 3 5 4 4 4 10 11 16 23 22 26 24 22 20 19 17 16 15 13 12 11 10 9 9 8 8 7 7 7 7 8 8 8 8 9
3 5 5 5 3 5 5 6 4 3 1 2 2 5 5 4 2 2 6 10 12 13 22 22 26 24 23 21 19 18 17 15 14 13 12 11 10 9 8 8 7 7 6 6 6 6 7 7 7
4 5 5 2 4 5 5 6 3 4 3 2 3 4 7 2 2 4 8 11 13 12 20 20 25 24 23 21 20 19 17 16 15 14 12 11 10 9 9 8 7 7 6 6 5 5 5 5 5
5 5 4 2 6 6 6 4 2 3 3 2 4 3 8 1 2 4 8 9 9 10 17 19 24 24 23 22 20 19 18 17 16 15 13 12 11 11 10 9 8 7 6 5 5 4 4 3 3
5 5 4 4 4 6 4 2 4 3 4 6 6 5 7 3 1 5 7 8 8 11 14 16 19 23 23 22 21 20 19 18 17 16 15 14 13 12 11 10 9 8 7 6 4 3 3 2 1
5 5 2 2 4 6 4 2 3 5 7 3 8 7 8 2 4 7 7 7 7 8 10 14 15 18 20 21 22 21 20 19 18 17 16 14 14 13 12 11 10 9 8 7 5 4 3 2 2
4 4 3 5 5 6 3 3 3 1 3 3 6 7 4 3 6 8 6 4 6 9 9 12 13 14 17 19 21 21 21 20 19 18 17 16 13 12 10 11 11 10 9 8 7 6 6 5 3
5 3 7 6 6 5 4 4 4 4 5 6 7 6 2 5 7 9 10 12 13 15 13 10 12 12 14 17 18 18 19 18 19 17 16 15 13 12 10 10 12 12 11 10 10 9 7 6 4
4 6 6 5 5 4 5 5 3 4 8 9 10 9 3 6 8 10 11 11 15 12 12 13 11 13 13 13 15 14 15 16 17 17 16 14 13 12 11 10 10 10 8 7 6 5 4 4 6
3 5 5 5 2 3 5 4 4 7 11 6 6 6 4 8 12 14 15 13 9 9 12 12 11 11 13 13 13 13 13 13 14 16 17 15 12 11 11 11 11 10 8 7 7 6 6 7 8
4 5 4 5 7 6 6 7 6 9 9 7 6 5 7 9 12 11 10 9 9 10 11 11 10 10 11 11 11 13 13 14 15 17 18 19 14 12 12 12 13 12 12 10 10 10 9 9 10
3 5 8 8 6 3 3 4 3 7 5 7 8 8 7 7 9 8 9 10 11 12 11 11 12 12 12 10 9 10 13 14 15 17 19 21 19 16 14 13 13 15 15 15 14 13 11 11 11
2 6 9 4 2 2 1 7 4 5 6 9 10 10 9 7 5 7 9 10 10 9 9 11 12 10 11 11 11 12 13 15 15 16 19 21 20 18 16 13 13 16 18 16 14 12 10 9 9
3 4 5 6 4 3 2 7 5 5 6 8 9 10 10 9 7 6 6 7 7 7 7 10 11 12 12 10 11 11 12 14 15 16 18 21 21 21 18 13 14 18 17 15 10 7 6 7 7
3 2 4 8 4 3 1 8 7 5 5 5 7 9 9 10 12 11 9 4 3 5 6 8 10 11 11 10 9 10 11 13 14 16 17 19 21 21 19 16 16 17 14 13 10 7 7 8 10
3 3 4 6 5 4 5 9 10 6 1 2 5 8 9 11 11 11 11 8 4 1 3 5 7 7 7 6 5 5 6 7 11 14 17 18 20 21 20 17 16 15 9 9 9 10 9 8 8
2 4 7 8 5 4 6 9 10 6 2 4 5 7 9 9 9 10 12 11 9 7 3 1 3 5 5 4 5 5 7 5 5 10 16 18 20 20 20 15 13 13 11 13 12 9 9 9 5
3 4 7 7 3 2 6 7 5 3 2 2 4 6 7 8 11 13 12 12 11 9 6 3 1 3 5 4 4 3 3 4 5 7 13 18 20 20 19 16 12 11 11 12 12 11 7 7 7
5 6 6 5 6 3 5 5 3 2 2 3 4 4 5 7 8 10 11 11 11 11 9 5 3 1 3 4 3 2 1 1 2 5 6 11 18 19 20 19 16 12 12 14 15 15 13 11 9
6 6 5 3 3 5 4 3 4 1 1 0 2 4 5 6 7 7 9 9 9 8 8 7 5 3 1 3 4 5 5 6 7 5 6 7 13 17 20 19 17 14 13 15 16 15 14 13 12
6 1 2 1 3 2 2 2 7 2 5 6 3 0 2 4 6 7 7 7 7 7 8 7 7 6 3 1 3 4 6 7 6 5 6 7 7 12 16 17 15 14 13 15 15 14 15 14 15
4 5 5 5 4 2 2 4 6 5 7 6 5 4 2 2 5 5 5 6 7 7 8 8 8 7 5 2 1 4 7 8 8 8 7 7 6 6 10 13 13 13 13 15 16 16 15 16 16
3 4 5 5 4 4 1 3 8 5 5 7 9 8 4 1 3 4 6 7 7 8 8 8 8 7 6 4 3 4 6 7 8 9 8 8 6 6 9 9 10 12 12 13 13 14 16 17 17
4 6 5 3 4 6 3 6 7 5 5 4 6 6 3 1 1 2 3 4 5 7 7 7 7 6 6 6 5 4 4 4 5 7 7 7 7 8 9 8 10 11 12 13 13 13 15 15 17
6 3 5 5 2 4 7 7 7 1 4 4 5 4 2 1 1 2 3 4 4 6 6 6 6 6 7 7 6 6 5 5 6 7 6 6 7 8 9 9 9 11 12 13 13 12 14 15 16
4 8 5 4 2 4 7 6 5 5 4 4 3 3 2 1 1 3 3 3 4 4 5 6 5 6 6 7 6 6 6 6 6 6 8 8 8 8 9 9 10 10 11 11 12 12 13 15 15
5 4 5 4 4 4 5 7 6 7 7 7 5 3 2 2 1 2 3 4 4 5 6 6 6 6 7 7 7 7 8 7 7 7 8 8 8 9 9 10 10 10 11 11 11 13 13 15 16
6 7 8 5 5 5 4 8 4 4 5 5 3 2 0 1 0 1 3 4 5 6 7 7 7 7 8 7 7 8 8 8 8 9 9 9 9 9 10 10 11 11 12 11 12 14 14 15 16
Wind_Direction
345 1 58 56 54 51 273 258 245 241 242 238 183 166 175 183 181 233 281 159 160 157 173 184 179 178 178 177 175 171 169 166 161 156 148 140 134 126 119 112 105 98 93 87 82 78 75 74 74
355 57 54 62 88 73 276 257 249 233 246 28 82 116 205 246 228 250 240 177 163 161 171 183 179 179 180 180 179 176 175 172 169 164 158 152 147 140 132 124 117 109 102 95 89 84 80 78 78
99 51 82 78 119 183 244 253 251 260 248 159 234 241 230 242 231 245 208 166 156 163 172 183 180 180 182 182 182 180 179 177 175 172 167 164 158 152 145 139 132 122 114 106 98 90 85 82 82
90 50 58 80 194 220 232 269 276 274 298 198 203 278 268 245 239 238 155 156 155 165 173 184 181 182 184 185 185 184 184 183 181 179 177 174 170 165 157 153 145 138 131 121 111 99 91 87 88
60 77 63 29 265 260 255 271 250 222 237 233 179 259 275 254 57 120 150 161 163 164 174 185 183 185 187 188 188 188 188 189 188 187 185 185 181 175 171 166 161 157 151 142 131 117 104 93 92
57 68 86 263 274 283 274 263 185 207 247 245 191 241 263 235 127 157 160 163 162 163 172 185 187 188 190 191 191 192 193 194 194 194 193 193 190 186 183 181 179 177 172 164 153 140 125 110 100
103 102 164 221 273 293 274 183 185 207 247 237 190 210 272 292 140 145 150 147 153 165 173 185 194 192 193 194 195 195 197 198 199 199 200 199 198 197 195 194 193 192 191 186 182 174 161 147 129
118 105 154 235 254 273 272 260 232 207 246 224 165 199 249 328 96 110 117 133 153 169 180 188 198 195 193 195 198 198 200 202 204 204 204 204 204 205 205 202 202 204 205 204 205 208 210 212 218
86 82 235 235 225 259 270 289 282 258 257 251 216 223 248 109 119 115 122 151 176 189 194 192 198 198 192 191 198 200 203 205 207 207 206 206 205 206 210 203 208 214 216 218 221 225 230 233 246
89 165 234 224 210 237 276 260 272 297 286 275 273 261 137 150 164 170 181 188 194 199 198 196 198 197 191 191 195 199 201 203 206 206 205 203 196 199 205 205 213 222 226 228 230 232 238 233 225
154 201 235 246 231 245 273 263 233 231 268 251 259 274 206 187 201 207 208 203 204 201 198 199 198 196 192 191 190 192 195 196 200 199 198 193 189 193 197 203 214 227 236 234 238 246 222 211 219
196 241 232 257 237 234 241 257 250 217 241 269 265 267 221 213 216 217 217 218 205 199 203 200 195 196 197 193 190 189 190 193 194 195 194 186 182 187 191 197 206 214 220 220 221 223 224 225 231
232 268 264 258 275 256 255 250 257 261 279 309 306 294 260 241 235 234 234 231 209 210 205 199 194 197 196 195 193 193 195 196 196 195 196 193 188 190 195 202 207 213 217 218 220 224 228 233 238
276 288 295 286 278 257 250 278 227 282 336 349 352 331 305 272 253 245 238 233 220 216 206 196 198 198 195 199 199 199 198 198 197 198 199 199 198 197 197 203 209 215 217 220 222 225 229 236 241
316 322 319 302 317 300 288 320 242 292 344 1 353 343 338 326 294 259 248 239 229 221 203 196 199 196 199 204 204 202 198 198 201 204 204 204 204 203 202 206 213 219 220 221 224 230 234 242 243
46 14 323 307 339 331 354 293 279 344 10 2 354 354 356 356 349 316 281 253 233 213 197 196 201 198 203 206 205 204 200 202 208 207 206 208 209 208 206 211 220 220 216 214 215 217 223 236 239
22 341 291 303 330 348 338 268 277 342 7 7 2 1 4 9 10 360 349 310 239 202 191 190 198 198 201 202 204 206 205 210 212 210 211 213 213 212 211 219 224 216 210 214 221 216 214 233 240
253 269 277 279 305 332 276 271 296 325 1 58 23 17 19 23 8 358 10 19 38 113 177 189 197 197 187 186 194 206 217 220 218 217 220 217 217 215 217 225 225 211 209 218 219 226 219 227 238
212 240 267 267 286 300 277 288 303 321 91 81 47 31 26 18 0 16 26 30 39 38 40 203 198 192 167 168 189 208 227 226 227 228 227 223 222 219 219 228 224 214 221 227 222 222 227 233 216
215 259 273 289 304 293 304 304 314 28 88 90 67 42 29 19 17 18 23 30 32 28 19 3 259 203 189 185 176 187 201 222 224 228 231 228 226 224 224 227 229 221 226 230 224 216 221 226 192
225 219 244 273 326 7 339 347 21 36 50 51 44 38 34 35 28 19 21 23 25 24 13 9 355 230 201 181 151 127 96 317 260 238 236 233 231 230 230 230 230 227 225 232 230 222 222 232 215
255 234 213 243 326 307 21 310 265 232 277 335 28 25 31 30 35 31 26 22 20 13 13 20 20 29 111 165 177 196 216 239 244 238 241 239 230 232 233 234 232 232 230 233 234 228 225 227 233
215 103 149 203 190 304 347 198 281 243 224 225 214 179 46 39 44 38 28 23 19 15 20 21 30 34 33 124 205 218 241 251 266 267 262 257 244 236 236 235 235 236 235 236 236 233 227 226 233
136 87 70 62 82 313 223 176 275 225 215 207 202 203 192 61 46 36 26 29 22 19 21 20 27 24 18 14 277 239 255 268 281 281 275 272 262 250 242 239 238 240 240 239 239 238 233 232 232
106 82 9 350 5 265 236 204 252 254 238 207 191 195 195 112 55 28 24 22 16 12 9 10 17 9 2 359 328 282 268 269 270 277 278 280 278 268 258 244 242 243 243 244 242 240 239 237 235
167 140 157 237 265 291 302 238 256 292 296 208 168 164 164 127 60 31 25 24 9 3 0 360 0 351 347 346 330 310 289 275 272 273 273 273 272 271 268 255 248 247 247 247 244 243 243 241 239
133 152 154 134 168 276 287 293 305 26 46 103 130 146 185 198 8 16 18 17 2 350 344 341 340 335 334 334 328 322 314 298 289 287 279 275 273 277 275 269 263 258 254 251 249 248 247 245 242
139 140 108 129 189 277 294 283 253 222 191 175 181 209 238 254 346 8 6 353 341 331 324 329 330 321 318 324 322 316 312 303 295 293 291 288 285 282 282 280 273 269 263 258 253 253 252 249 247
127 132 125 124 160 182 271 275 229 210 196 193 210 232 240 230 304 337 330 326 325 325 326 327 328 326 323 322 317 315 310 306 303 294 289 288 287 287 283 280 278 274 270 264 259 256 254 253 253
175 175 153 167 217 190 210 268 287 197 183 178 202 238 176 123 115 317 321 326 328 327 327 326 322 319 314 311 310 307 304 304 302 296 293 291 289 286 282 281 280 277 273 267 262 264 260 256 256
Height
1537 1538 1540 1542 1546 1558 1558 1552 1547 1545 1544 1542 1542 1542 1543 1544 1547 1548 1541 1539 1539 1540 1542 1544 1546 1549 1551 1553 1555 1557 1558 1559 1560 1561 1562 1562 1563 1563 1563 1563 1563 1563 1563 1563 1563 1562 1562 1562 1562
1537 1538 1541 1542 1554 1565 1560 1549 1546 1543 1542 1541 1541 1542 1541 1540 1539 1539 1538 1538 1539 1540 1541 1543 1545 1548 1550 1553 1555 1556 1558 1559 1560 1561 1562 1563 1563 1563 1563 1563 1564 1564 1564 1563 1563 1563 1563 1563 1562
1537 1539 1542 1545 1556 1562 1554 1545 1543 1541 1541 1541 1541 1541 1541 1539 1538 1538 1538 1538 1538 1539 1541 1543 1545 1547 1550 1552 1554 1556 1558 1559 1560 1561 1562 1563 1563 1563 1564 1564 1564 1564 1564 1564 1564 1564 1564 1563 1563
1538 1540 1542 1550 1553 1551 1547 1542 1541 1540 1540 1541 1541 1541 1539 1538 1537 1537 1537 1537 1538 1539 1540 1542 1544 1547 1549 1551 1553 1555 1557 1559 1560 1561 1562 1563 1563 1564 1564 1564 1564 1564 1564 1564 1564 1564 1564 1564 1564
1538 1540 1547 1555 1551 1547 1543 1541 1540 1540 1540 1540 1540 1539 1538 1537 1536 1536 1536 1536 1537 1538 1540 1541 1544 1546 1548 1550 1552 1554 1556 1558 1559 1561 1562 1563 1563 1564 1564 1564 1564 1564 1565 1565 1565 1565 1565 1565 1565
1539 1541 1555 1557 1551 1546 1542 1540 1539 1539 1539 1539 1539 1538 1536 1535 1534 1534 1535 1535 1536 1537 1539 1540 1543 1545 1547 1549 1551 1553 1555 1557 1559 1560 1561 1562 1563 1563 1564 1564 1564 1565 1565 1565 1565 1565 1565 1565 1565
1540 1545 1552 1551 1551 1546 1540 1539 1538 1538 1538 1538 1537 1537 1534 1533 1533 1533 1533 1534 1534 1536 1537 1539 1541 1543 1545 1548 1550 1552 1554 1556 1558 1559 1560 1562 1562 1563 1564 1564 1564 1565 1565 1565 1565 1565 1565 1565 1565
1539 1544 1548 1551 1549 1545 1539 1538 1537 1537 1536 1536 1536 1534 1532 1532 1531 1531 1531 1531 1532 1534 1535 1537 1539 1541 1543 1545 1548 1550 1552 1554 1556 1558 1559 1560 1561 1562 1563 1564 1564 1564 1564 1565 1565 1565 1565 1565 1565
1539 1548 1552 1549 1547 1542 1537 1537 1536 1535 1535 1533 1532 1531 1530 1529 1528 1528 1528 1529 1530 1531 1532 1534 1536 1538 1540 1543 1545 1548 1550 1552 1554 1556 1557 1559 1560 1561 1562 1562 1563 1564 1564 1564 1564 1564 1564 1564 1564
1539 1549 1546 1541 1539 1538 1536 1536 1535 1534 1532 1530 1529 1528 1526 1525 1524 1524 1525 1525 1526 1528 1529 1531 1533 1535 1537 1540 1542 1545 1547 1549 1551 1553 1555 1556 1557 1559 1560 1561 1562 1562 1563 1563 1563 1563 1563 1563 1563
1538 1542 1539 1536 1536 1536 1535 1533 1532 1532 1530 1527 1525 1524 1523 1521 1521 1520 1521 1522 1524 1525 1527 1528 1530 1532 1535 1537 1539 1542 1544 1546 1548 1550 1552 1554 1555 1557 1558 1559 1560 1561 1561 1561 1561 1561 1561 1561 1561
1538 1536 1536 1534 1534 1533 1532 1531 1530 1528 1525 1525 1523 1521 1519 1518 1517 1516 1517 1518 1520 1522 1524 1526 1528 1530 1532 1534 1536 1538 1541 1543 1545 1547 1549 1551 1552 1554 1555 1557 1558 1558 1559 1559 1559 1560 1559 1559 1559
1537 1535 1533 1532 1531 1530 1529 1528 1527 1523 1522 1522 1520 1518 1516 1514 1513 1513 1514 1515 1517 1518 1521 1523 1525 1527 1529 1531 1533 1535 1537 1540 1542 1544 1546 1548 1549 1551 1552 1554 1555 1555 1556 1556 1557 1557 1556 1556 1556
1535 1534 1532 1529 1528 1527 1527 1526 1525 1520 1521 1519 1517 1515 1513 1510 1509 1509 1510 1510 1512 1514 1517 1520 1522 1524 1527 1528 1530 1532 1534 1537 1539 1541 1542 1544 1546 1547 1549 1550 1551 1551 1552 1553 1553 1553 1552 1552 1551
1534 1534 1531 1527 1527 1526 1527 1526 1523 1521 1520 1518 1516 1513 1511 1509 1507 1507 1507 1507 1509 1511 1513 1516 1518 1521 1523 1525 1527 1529 1531 1533 1535 1537 1539 1540 1542 1543 1544 1545 1546 1547 1548 1548 1548 1548 1547 1546 1546
1535 1538 1537 1529 1527 1526 1529 1530 1522 1520 1519 1517 1516 1514 1511 1509 1508 1506 1506 1505 1506 1508 1510 1512 1514 1517 1519 1521 1523 1525 1527 1529 1531 1533 1534 1536 1537 1538 1539 1540 1540 1542 1542 1542 1542 1542 1541 1540 1540
1540 1543 1539 1534 1527 1527 1528 1528 1520 1520 1519 1518 1517 1515 1513 1511 1509 1508 1506 1505 1505 1506 1508 1509 1511 1513 1515 1517 1520 1522 1523 1525 1526 1528 1529 1531 1532 1533 1533 1534 1534 1535 1536 1536 1536 1535 1534 1533 1533
1541 1540 1539 1537 1529 1528 1528 1526 1520 1519 1518 1518 1517 1516 1515 1513 1512 1510 1509 1508 1507 1507 1507 1508 1509 1511 1512 1514 1516 1518 1519 1520 1522 1523 1524 1525 1526 1527 1527 1527 1527 1528 1528 1528 1528 1527 1527 1526 1526
1535 1538 1540 1536 1530 1529 1528 1526 1521 1518 1518 1518 1518 1517 1516 1516 1516 1514 1512 1511 1510 1509 1509 1509 1509 1510 1510 1511 1513 1514 1515 1516 1517 1518 1519 1519 1520 1520 1520 1520 1520 1520 1519 1519 1519 1519 1518 1517 1518
1536 1538 1539 1534 1529 1530 1529 1527 1521 1519 1520 1520 1519 1519 1518 1518 1517 1516 1515 1513 1512 1511 1510 1510 1509 1509 1509 1510 1511 1511 1512 1512 1513 1513 1513 1513 1513 1513 1512 1512 1511 1511 1510 1510 1510 1510 1508 1508 1509
1535 1537 1534 1533 1531 1530 1530 1526 1523 1521 1521 1521 1521 1520 1519 1519 1518 1518 1517 1516 1515 1513 1512 1511 1510 1509 1509 1509 1509 1509 1509 1509 1509 1508 1508 1508 1507 1506 1505 1504 1504 1503 1502 1500 1500 1500 1499 1497 1498
1535 1529 1530 1531 1535 1538 1535 1538 1527 1523 1522 1522 1521 1520 1520 1520 1520 1519 1519 1518 1517 1516 1515 1513 1512 1511 1510 1509 1508 1508 1507 1506 1505 1504 1503 1502 1501 1500 1498 1497 1495 1494 1493 1491 1491 1490 1488 1488 1486
1527 1526 1528 1531 1535 1540 1538 1540 1532 1524 1523 1522 1521 1521 1521 1521 1521 1520 1520 1520 1519 1518 1517 1515 1514 1512 1511 1509 1508 1506 1505 1503 1502 1500 1498 1497 1495 1493 1492 1490 1488 1486 1484 1482 1481 1480 1478 1477 1476
1524 1528 1533 1539 1542 1542 1534 1540 1531 1526 1520 1519 1519 1520 1520 1521 1521 1521 1521 1521 1520 1519 1518 1516 1514 1513 1511 1509 1507 1505 1503 1500 1498 1496 1494 1492 1490 1487 1485 1483 1480 1478 1476 1474 1472 1470 1468 1466 1464
1525 1533 1542 1538 1543 1540 1534 1538 1530 1517 1516 1515 1516 1518 1519 1521 1521 1521 1521 1521 1520 1519 1517 1516 1514 1512 1510 1508 1505 1503 1500 1497 1494 1492 1489 1486 1484 1481 1479 1476 1473 1471 1468 1466 1463 1461 1458 1457 1454
1525 1530 1541 1543 1547 1544 1536 1536 1523 1514 1512 1511 1514 1517 1519 1520 1520 1520 1520 1520 1519 1518 1516 1515 1513 1510 1508 1505 1503 1500 1496 1493 1490 1487 1484 1481 1478 1475 1473 1470 1466 1463 1460 1458 1455 1451 1449 1446 1443
1527 1530 1532 1543 1545 1548 1540 1532 1520 1513 1513 1512 1514 1516 1517 1518 1519 1519 1519 1519 1518 1517 1515 1513 1510 1508 1505 1502 1499 1496 1493 1489 1486 1483 1480 1476 1473 1469 1466 1463 1459 1456 1452 1449 1446 1442 1439 1436 1433
1522 1528 1538 1542 1544 1546 1540 1534 1525 1515 1514 1514 1514 1515 1516 1517 1517 1518 1518 1517 1516 1515 1513 1510 1508 1505 1501 1498 1495 1492 1488 1485 1481 1478 1474 1471 1467 1463 1459 1455 1451 1448 1444 1440 1436 1432 1429 1425 1422
1526 1528 1532 1541 1543 1546 1546 1532 1514 1511 1511 1512 1513 1513 1514 1515 1516 1516 1516 1515 1514 1512 1510 1507 1504 1501 1498 1494 1491 1487 1484 1480 1476 1473 1468 1464 1460 1456 1451 1447 1443 1439 1435 1431 1427 1422 1418 1414 1410
1519 1523 1530 1535 1538 1545 1545 1531 1508 1508 1508 1510 1511 1512 1513 1514 1514 1514 1514 1513 1511 1509 1506 1503 1500 1497 1493 1490 1486 1482 1478 1475 1470 1466 1462 1457 1452 1448 1443 1438 1434 1429 1425 1421 1416 1411 1407 1403 1398